| time (UTC) | temp C | wind direction | speed KPH | gust KPH | rain 1hr cm | rain 24hr cm | rain mn cm | humidity % | barometer mb |
| 20260506171142 | 27 | 155 | 3.2 | 6.4 | 0.00 | 0.00 | 0.00 | 79 | 1011.3 |
| 20260506170124 | 27 | 165 | 3.2 | 6.4 | 0.00 | 0.00 | 0.00 | 78 | 1011.3 |
| 20260506165121 | 27 | 53 | 3.2 | 6.4 | 0.00 | 0.00 | 0.00 | 79 | 1011.3 |
| 20260506164142 | 27 | 79 | 3.2 | 6.4 | 0.00 | 0.00 | 0.00 | 80 | 1011.2 |
| 20260506163121 | 27 | 171 | 3.2 | 8.0 | 0.00 | 0.00 | 0.00 | 79 | 1011.2 |
| 20260506162121 | 27 | 146 | 3.2 | 4.8 | 0.00 | 0.00 | 0.00 | 81 | 1011.2 |
| 20260506161121 | 27 | 186 | 3.2 | 4.8 | 0.00 | 0.00 | 0.00 | 82 | 1011.2 |
| 20260506160121 | 27 | 170 | 1.6 | 4.8 | 0.00 | 0.00 | 0.00 | 82 | 1011.1 |
| 20260506155121 | 26 | 176 | 3.2 | 6.4 | 0.00 | 0.00 | 0.00 | 85 | 1011.1 |
| 20260506154125 | 26 | 191 | 0.0 | 3.2 | 0.00 | 0.00 | 0.00 | 86 | 1010.9 |
| 20260506153121 | 25 | 174 | 1.6 | 3.2 | 0.00 | 0.00 | 0.00 | 87 | 1010.9 |
| 20260506152121 | 25 | 180 | 1.6 | 3.2 | 0.00 | 0.00 | 0.00 | 86 | 1010.8 |
| 20260506151121 | 25 | 111 | 1.6 | 3.2 | 0.00 | 0.00 | 0.00 | 87 | 1010.7 |
| 20260506150121 | 25 | 209 | 0.0 | 3.2 | 0.00 | 0.00 | 0.00 | 88 | 1010.7 |
| 20260506145121 | 25 | 109 | 0.0 | 3.2 | 0.00 | 0.00 | 0.00 | 89 | 1010.8 |
| 20260506144121 | 25 | 97 | 0.0 | 3.2 | 0.00 | 0.00 | 0.00 | 89 | 1010.7 |
| 20260506143126 | 25 | 349 | 1.6 | 3.2 | 0.00 | 0.00 | 0.00 | 89 | 1010.5 |
| 20260506142126 | 25 | 164 | 1.6 | 4.8 | 0.00 | 0.00 | 0.00 | 89 | 1010.4 |
| 20260506141122 | 25 | 172 | 1.6 | 3.2 | 0.00 | 0.00 | 0.00 | 89 | 1010.3 |
| 20260506140123 | 25 | 116 | 1.6 | 4.8 | 0.00 | 0.00 | 0.00 | 89 | 1010.3 |
| 20260506135121 | 25 | 140 | 1.6 | 6.4 | 0.00 | 0.00 | 0.00 | 89 | 1010.1 |
| 20260506134121 | 25 | 115 | 1.6 | 6.4 | 0.00 | 0.00 | 0.00 | 89 | 1010.0 |
| 20260506133121 | 25 | 140 | 3.2 | 4.8 | 0.00 | 0.00 | 0.00 | 89 | 1009.9 |
| 20260506132127 | 25 | 179 | 1.6 | 6.4 | 0.00 | 0.00 | 0.00 | 90 | 1009.9 |
| 20260506131142 | 24 | 174 | 3.2 | 6.4 | 0.00 | 0.00 | 0.00 | 91 | 1009.8 |
| 20260506130142 | 24 | 168 | 3.2 | 6.4 | 0.00 | 0.00 | 0.00 | 92 | 1009.8 |
| 20260506125122 | 24 | 144 | 3.2 | 4.8 | 0.00 | 0.00 | 0.00 | 92 | 1009.8 |
| 20260506124121 | 23 | 110 | 1.6 | 4.8 | 0.00 | 0.00 | 0.00 | 92 | 1009.8 |
| 20260506123121 | 23 | 147 | 1.6 | 4.8 | 0.00 | 0.00 | 0.00 | 92 | 1009.9 |
| 20260506122121 | 23 | 134 | 1.6 | 3.2 | 0.00 | 0.00 | 0.00 | 92 | 1009.9 |
| 20260506121121 | 23 | 169 | 1.6 | 3.2 | 0.00 | 0.00 | 0.00 | 92 | 1009.9 |
| 20260506120142 | 23 | 141 | 1.6 | 6.4 | 0.00 | 0.00 | 0.00 | 92 | 1009.9 |
| 20260506115121 | 23 | 168 | 0.0 | 3.2 | 0.00 | 0.00 | 0.00 | 92 | 1009.8 |
| 20260506114142 | 23 | 140 | 1.6 | 4.8 | 0.00 | 0.00 | 0.00 | 92 | 1009.7 |
| 20260506113122 | 23 | 166 | 0.0 | 3.2 | 0.00 | 0.00 | 0.00 | 91 | 1009.7 |
| 20260506112121 | 23 | 178 | 3.2 | 4.8 | 0.00 | 0.00 | 0.00 | 91 | 1009.7 |
| 20260506111142 | 23 | 178 | 1.6 | 3.2 | 0.00 | 0.00 | 0.00 | 91 | 1009.7 |
| 20260506110121 | 24 | 158 | 1.6 | 4.8 | 0.00 | 0.00 | 0.00 | 91 | 1009.7 |
| 20260506105121 | 24 | 175 | 1.6 | 4.8 | 0.00 | 0.00 | 0.00 | 91 | 1009.6 |
| 20260506104121 | 24 | 186 | 1.6 | 4.8 | 0.00 | 0.00 | 0.00 | 91 | 1009.6 |
| 20260506103124 | 24 | 156 | 1.6 | 6.4 | 0.00 | 0.00 | 0.00 | 90 | 1009.5 |
| 20260506102121 | 24 | 174 | 1.6 | 4.8 | 0.00 | 0.00 | 0.00 | 90 | 1009.6 |
| 20260506101121 | 24 | 141 | 1.6 | 6.4 | 0.00 | 0.00 | 0.00 | 90 | 1009.6 |
| 20260506100121 | 24 | 203 | 1.6 | 4.8 | 0.00 | 0.00 | 0.00 | 90 | 1009.5 |
| 20260506095121 | 24 | 184 | 0.0 | 4.8 | 0.00 | 0.00 | 0.00 | 90 | 1009.6 |
| 20260506094121 | 24 | 183 | 1.6 | 4.8 | 0.00 | 0.00 | 0.00 | 90 | 1009.6 |
| 20260506093121 | 24 | 181 | 3.2 | 8.0 | 0.00 | 0.00 | 0.00 | 90 | 1009.4 |
| 20260506092121 | 24 | 186 | 3.2 | 8.0 | 0.00 | 0.00 | 0.00 | 89 | 1009.4 |
| 20260506091121 | 24 | 186 | 3.2 | 9.7 | 0.00 | 0.00 | 0.00 | 89 | 1009.5 |
| 20260506090125 | 24 | 211 | 1.6 | 6.4 | 0.00 | 0.00 | 0.00 | 89 | 1009.5 |
| 20260506085121 | 24 | 167 | 3.2 | 8.0 | 0.00 | 0.00 | 0.00 | 89 | 1009.5 |
| 20260506084121 | 24 | 178 | 3.2 | 6.4 | 0.00 | 0.00 | 0.00 | 89 | 1009.5 |
| 20260506083121 | 24 | 180 | 3.2 | 11.3 | 0.00 | 0.00 | 0.00 | 89 | 1009.5 |
| 20260506082143 | 24 | 158 | 3.2 | 6.4 | 0.00 | 0.00 | 0.00 | 89 | 1009.5 |
| 20260506081142 | 24 | 208 | 4.8 | 9.7 | 0.00 | 0.00 | 0.00 | 89 | 1009.6 |
| 20260506080121 | 24 | 187 | 3.2 | 6.4 | 0.00 | 0.00 | 0.00 | 89 | 1009.6 |
| 20260506073121 | 24 | 164 | 3.2 | 6.4 | 0.00 | 0.00 | 0.00 | 89 | 1009.7 |
| 20260506072121 | 25 | 164 | 3.2 | 6.4 | 0.00 | 0.00 | 0.00 | 89 | 1009.8 |
| 20260506071143 | 25 | 178 | 1.6 | 4.8 | 0.00 | 0.00 | 0.00 | 89 | 1009.8 |
| 20260506070122 | 25 | 189 | 3.2 | 8.0 | 0.00 | 0.00 | 0.00 | 89 | 1009.8 |
| 20260506062121 | 25 | 175 | 3.2 | 6.4 | 0.00 | 0.00 | 0.00 | 89 | 1009.8 |
| 20260506061121 | 25 | 183 | 3.2 | 6.4 | 0.00 | 0.00 | 0.00 | 89 | 1009.8 |
| 20260506060122 | 25 | 162 | 3.2 | 6.4 | 0.00 | 0.00 | 0.00 | 88 | 1009.8 |
| 20260506051126 | 25 | 179 | 4.8 | 8.0 | 0.00 | 0.00 | 0.00 | 88 | 1009.7 |
| 20260506050121 | 25 | 120 | 4.8 | 8.0 | 0.00 | 0.00 | 0.00 | 88 | 1009.8 |
| 20260506044121 | 25 | 99 | 3.2 | 9.7 | 0.00 | 0.00 | 0.00 | 88 | 1009.9 |
| 20260506043121 | 25 | 172 | 3.2 | 4.8 | 0.00 | 0.00 | 0.00 | 87 | 1009.7 |
| 20260506042121 | 25 | 169 | 3.2 | 8.0 | 0.00 | 0.00 | 0.00 | 87 | 1009.8 |
| 20260506041121 | 25 | 155 | 4.8 | 6.4 | 0.00 | 0.00 | 0.00 | 87 | 1009.7 |
| 20260506040122 | 25 | 165 | 3.2 | 8.0 | 0.00 | 0.00 | 0.00 | 87 | 1009.7 |
| 20260506035147 | 25 | 162 | 3.2 | 6.4 | 0.00 | 0.00 | 0.00 | 87 | 1009.7 |
| 20260506034121 | 25 | 163 | 4.8 | 9.7 | 0.00 | 0.00 | 0.00 | 86 | 1009.6 |
| 20260506033122 | 25 | 138 | 4.8 | 8.0 | 0.00 | 0.00 | 0.00 | 86 | 1009.5 |
| 20260506032122 | 25 | 160 | 4.8 | 8.0 | 0.00 | 0.00 | 0.00 | 85 | 1009.6 |
| 20260506031121 | 26 | 145 | 4.8 | 9.7 | 0.00 | 0.00 | 0.00 | 84 | 1009.5 |
| 20260506030121 | 26 | 113 | 6.4 | 11.3 | 0.00 | 0.00 | 0.00 | 83 | 1009.5 |
| 20260506025121 | 26 | 144 | 6.4 | 9.7 | 0.00 | 0.00 | 0.00 | 82 | 1009.3 |
| 20260506024121 | 26 | 194 | 6.4 | 8.0 | 0.00 | 0.00 | 0.00 | 82 | 1009.3 |
| 20260506023126 | 27 | 110 | 4.8 | 8.0 | 0.00 | 0.00 | 0.00 | 81 | 1009.3 |
| 20260506022121 | 27 | 80 | 4.8 | 6.4 | 0.00 | 0.00 | 0.00 | 79 | 1009.3 |
| 20260506021121 | 27 | 135 | 4.8 | 6.4 | 0.00 | 0.00 | 0.00 | 77 | 1009.1 |
| 20260506020122 | 27 | 126 | 4.8 | 8.0 | 0.00 | 0.00 | 0.00 | 76 | 1009.1 |
| 20260506015121 | 28 | 125 | 4.8 | 9.7 | 0.00 | 0.00 | 0.00 | 73 | 1009.0 |
| 20260506014122 | 28 | 147 | 3.2 | 6.4 | 0.00 | 0.00 | 0.00 | 72 | 1008.9 |
| 20260506013121 | 28 | 164 | 3.2 | 4.8 | 0.00 | 0.00 | 0.00 | 71 | 1008.8 |
| 20260506012126 | 28 | 163 | 3.2 | 6.4 | 0.00 | 0.00 | 0.00 | 71 | 1008.7 |
| 20260506011121 | 28 | 189 | 3.2 | 8.0 | 0.00 | 0.00 | 0.00 | 70 | 1008.6 |
| 20260506010121 | 29 | 111 | 3.2 | 6.4 | 0.00 | 0.00 | 0.00 | 69 | 1008.6 |
| 20260506005122 | 29 | 107 | 3.2 | 6.4 | 0.00 | 0.00 | 0.00 | 68 | 1008.5 |
| 20260506004121 | 30 | 161 | 3.2 | 4.8 | 0.00 | 0.00 | 0.00 | 67 | 1008.6 |
| 20260506003121 | 30 | 159 | 4.8 | 8.0 | 0.00 | 0.00 | 0.00 | 65 | 1008.5 |
| 20260506002121 | 30 | 167 | 3.2 | 6.4 | 0.00 | 0.00 | 0.00 | 64 | 1008.5 |
| 20260506001121 | 31 | 193 | 3.2 | 6.4 | 0.00 | 0.00 | 0.00 | 64 | 1008.4 |
| 20260506000125 | 31 | 165 | 1.6 | 3.2 | 0.00 | 0.00 | 0.00 | 62 | 1008.4 |
| 20260505235121 | 31 | 166 | 1.6 | 6.4 | 0.00 | 0.00 | 0.00 | 61 | 1008.3 |
| 20260505234143 | 32 | 203 | 3.2 | 6.4 | 0.00 | 0.00 | 0.00 | 60 | 1008.4 |
| 20260505233121 | 32 | 172 | 1.6 | 6.4 | 0.00 | 0.00 | 0.00 | 60 | 1008.4 |
| 20260505232122 | 32 | 181 | 1.6 | 6.4 | 0.00 | 0.00 | 0.00 | 61 | 1008.3 |
| 20260505231121 | 31 | 155 | 1.6 | 4.8 | 0.00 | 0.00 | 0.00 | 62 | 1008.3 |
| 20260505230122 | 31 | 153 | 4.8 | 8.0 | 0.00 | 0.00 | 0.00 | 59 | 1008.3 |
| 20260505225121 | 33 | 179 | 1.6 | 6.4 | 0.00 | 0.00 | 0.00 | 56 | 1008.4 |
| 20260505224122 | 31 | 177 | 3.2 | 6.4 | 0.00 | 0.00 | 0.00 | 60 | 1008.3 |
| 20260505223121 | 30 | 152 | 3.2 | 6.4 | 0.00 | 0.00 | 0.00 | 64 | 1008.4 |
| 20260505222121 | 30 | 171 | 3.2 | 6.4 | 0.00 | 0.00 | 0.00 | 63 | 1008.5 |
| 20260505221121 | 31 | 183 | 3.2 | 6.4 | 0.00 | 0.00 | 0.00 | 61 | 1008.5 |
| 20260505220121 | 31 | 194 | 3.2 | 6.4 | 0.00 | 0.00 | 0.00 | 61 | 1008.5 |
| 20260505215121 | 31 | 202 | 3.2 | 9.7 | 0.00 | 0.00 | 0.00 | 60 | 1008.6 |
| 20260505214121 | 30 | 169 | 3.2 | 8.0 | 0.00 | 0.00 | 0.00 | 63 | 1008.7 |
| 20260505213121 | 30 | 194 | 4.8 | 9.7 | 0.00 | 0.00 | 0.00 | 62 | 1008.8 |
| 20260505212122 | 30 | 154 | 4.8 | 8.0 | 0.00 | 0.00 | 0.00 | 63 | 1008.9 |
| 20260505211122 | 31 | 121 | 4.8 | 6.4 | 0.00 | 0.00 | 0.00 | 61 | 1009.0 |
| 20260505210126 | 31 | 189 | 3.2 | 6.4 | 0.00 | 0.00 | 0.00 | 60 | 1009.1 |
| 20260505205122 | 32 | 181 | 4.8 | 8.0 | 0.00 | 0.00 | 0.00 | 59 | 1009.1 |
| 20260505204121 | 31 | 145 | 4.8 | 8.0 | 0.00 | 0.00 | 0.00 | 60 | 1009.2 |
| 20260505203121 | 31 | 214 | 3.2 | 6.4 | 0.00 | 0.00 | 0.00 | 61 | 1009.4 |
| 20260505202142 | 31 | 196 | 3.2 | 8.0 | 0.00 | 0.00 | 0.00 | 62 | 1009.5 |
| 20260505201121 | 31 | 220 | 3.2 | 8.0 | 0.00 | 0.00 | 0.00 | 61 | 1009.5 |
| 20260505200121 | 32 | 198 | 3.2 | 6.4 | 0.00 | 0.00 | 0.00 | 60 | 1009.5 |
| 20260505195121 | 30 | 122 | 3.2 | 6.4 | 0.00 | 0.00 | 0.00 | 63 | 1009.5 |
| 20260505194125 | 31 | 177 | 3.2 | 6.4 | 0.00 | 0.00 | 0.00 | 61 | 1009.6 |
| 20260505193122 | 32 | 178 | 3.2 | 4.8 | 0.00 | 0.00 | 0.00 | 61 | 1009.6 |
| 20260505192121 | 31 | 177 | 3.2 | 6.4 | 0.00 | 0.00 | 0.00 | 61 | 1009.8 |
| 20260505191122 | 30 | 175 | 4.8 | 9.7 | 0.00 | 0.00 | 0.00 | 65 | 1009.9 |
| 20260505190122 | 30 | 206 | 3.2 | 8.0 | 0.00 | 0.00 | 0.00 | 66 | 1009.9 |
| 20260505185121 | 30 | 209 | 3.2 | 6.4 | 0.00 | 0.00 | 0.00 | 64 | 1010.0 |
| 20260505184124 | 30 | 188 | 3.2 | 4.8 | 0.00 | 0.00 | 0.00 | 66 | 1010.1 |
| 20260505183125 | 29 | 202 | 3.2 | 4.8 | 0.00 | 0.00 | 0.00 | 68 | 1010.2 |
| 20260505182121 | 28 | 195 | 3.2 | 6.4 | 0.00 | 0.00 | 0.00 | 70 | 1010.1 |
| 20260505181122 | 28 | 168 | 1.6 | 3.2 | 0.00 | 0.00 | 0.00 | 69 | 1010.1 |
| 20260505180121 | 29 | 198 | 3.2 | 4.8 | 0.00 | 0.00 | 0.00 | 69 | 1010.1 |
| 20260505175142 | 27 | 131 | 4.8 | 9.7 | 0.00 | 0.00 | 0.00 | 73 | 1010.2 |
| 20260505174143 | 28 | 159 | 3.2 | 6.4 | 0.00 | 0.00 | 0.00 | 70 | 1010.2 |
| 20260505173142 | 27 | 225 | 3.2 | 4.8 | 0.00 | 0.00 | 0.00 | 73 | 1010.3 |
| 20260505172122 | 28 | 228 | 3.2 | 6.4 | 0.00 | 0.00 | 0.00 | 73 | 1010.3 |